Weather History for Burlington, NC

Change the Weather History Date:

Tuesday, January 31, 2012

  Actual Average Record
Temperature  
Mean Temperature 52 °F -  
Max Temperature 68 °F 51 °F 54 °F (2014)
Min Temperature 37 °F 27 °F 12 °F (2014)
Degree Days  
Heating Degree Days 12    
Growing Degree Days 2 (Base 50)    
Moisture  
Dew Point 25 °F    
Average Humidity 37    
Maximum Humidity 57    
Minimum Humidity 22    
Precipitation  
Precipitation 0.00 in - - ()
Sea Level Pressure  
Sea Level Pressure 30.29 in    
Wind  
Wind Speed 6 mph (SW)    
Max Wind Speed 12 mph    
Max Gust Speed 17 mph    
Visibility 10 miles    
Events      
Averages and records for this station are not official NWS values.
T = Trace of Precipitation, MM = Missing Value Source: NWS Daily Summary

Daily Weather History Graph

Daily Weather History Graph

Search for Another Location

Airport:

Trip Planner

Search our weather history database for the weather conditions in past years. The results will help you decide how hot, cold, wet, or windy it might be!

Date:

Astronomy

Jan. 31, 2012 Rise Set
Actual Time 7:19 AM EST 5:43 PM EST
Civil Twilight 6:52 AM EST 6:10 PM EST
Nautical Twilight 6:21 AM EST 6:41 PM EST
Astronomical Twilight 5:51 AM EST 7:11 PM EST
Moon 11:33 AM EST (1/31) 1:05 AM EST (1/31)
Length of Visible Light 11h 17m
Length of Day
10h 23m
First Quarter, 55% of the Moon is Illuminated
Jan 31
First Quarter
Feb 7
Full
Feb 14
Last Quarter
Feb 21
New
Feb 29
First Quarter

Hourly Weather History & Observations

Time (EST) Temp. Windchill Dew Point Humidity Pressure Visibility Wind Dir Wind Speed Gust Speed Precip Events Conditions
12:54 AM 45.0 °F 43.5 °F 21.0 °F 39% 30.34 in 10.0 mi SW 3.5 mph - N/A   Clear
1:54 AM 44.1 °F 41.5 °F 21.9 °F 42% 30.33 in 10.0 mi SSW 4.6 mph - N/A   Clear
2:54 AM 44.1 °F 42.5 °F 21.9 °F 42% 30.32 in 10.0 mi SW 3.5 mph - N/A   Clear
3:54 AM 42.1 °F 38.4 °F 21.9 °F 45% 30.32 in 10.0 mi SW 5.8 mph - N/A   Clear
4:54 AM 39.9 °F 35.8 °F 21.9 °F 49% 30.32 in 9.0 mi SW 5.8 mph - N/A   Clear
5:54 AM 39.9 °F 35.8 °F 23.0 °F 51% 30.32 in 10.0 mi SW 5.8 mph - N/A   Clear
6:54 AM 37.9 °F 34.4 °F 23.0 °F 55% 30.33 in 10.0 mi SSW 4.6 mph - N/A   Clear
7:54 AM 37.9 °F 34.4 °F 24.1 °F 57% 30.35 in 10.0 mi WSW 4.6 mph - N/A   Clear
8:54 AM 44.1 °F 41.5 °F 25.0 °F 47% 30.36 in 10.0 mi SW 4.6 mph - N/A   Clear
10:54 AM 57.9 °F - 23.0 °F 26% 30.35 in 10.0 mi WSW 8.1 mph - N/A   Clear
11:54 AM 61.0 °F - 23.0 °F 23% 30.33 in 10.0 mi SW 10.4 mph - N/A   Clear
12:54 PM 64.0 °F - 24.1 °F 22% 30.29 in 10.0 mi SW 8.1 mph - N/A   Clear
1:54 PM 66.0 °F - 26.1 °F 22% 30.26 in 10.0 mi WSW 11.5 mph 17.3 mph N/A   Clear
2:54 PM 68.0 °F - 28.0 °F 22% 30.23 in 10.0 mi SW 6.9 mph - N/A   Clear
3:54 PM 66.9 °F - 28.0 °F 23% 30.22 in 10.0 mi South 10.4 mph 16.1 mph N/A   Clear
4:54 PM 64.9 °F - 28.0 °F 25% 30.23 in 10.0 mi SSW 10.4 mph - N/A   Clear
5:54 PM 60.1 °F - 28.9 °F 31% 30.25 in 10.0 mi SSW 4.6 mph - N/A   Clear
6:54 PM 57.9 °F - 28.9 °F 33% 30.25 in 10.0 mi SSW 5.8 mph - N/A   Clear
7:54 PM 57.0 °F - 28.9 °F 34% 30.25 in 10.0 mi SSW 5.8 mph - N/A   Clear
8:54 PM 55.0 °F - 28.9 °F 37% 30.25 in 10.0 mi SW 5.8 mph - N/A   Clear
9:54 PM 54.0 °F - 28.9 °F 38% 30.25 in 10.0 mi SW 5.8 mph - N/A   Clear
10:54 PM 52.0 °F - 28.9 °F 41% 30.25 in 10.0 mi SW 4.6 mph - N/A   Clear
11:54 PM 51.1 °F - 28.9 °F 43% 30.24 in 10.0 mi Calm Calm - N/A   Clear